﻿Period;Elområde;aFRR Upp Pris (EUR/MW);aFRR Upp Volym (MW);aFRR Ned Pris (EUR/MW);aFRR Ned Volym (MW);Publiceringstidpunkt;
2022-01-14 00:00;;53,081;105;53,081;105;2022-01-06 13:01
2022-01-14 01:00;;0;0;0;0;2022-01-06 13:01
2022-01-14 02:00;;0;0;0;0;2022-01-06 13:01
2022-01-14 03:00;;0;0;0;0;2022-01-06 13:01
2022-01-14 04:00;;0;0;0;0;2022-01-06 13:01
2022-01-14 05:00;;57,616;140;57,616;140;2022-01-06 13:01
2022-01-14 06:00;;57,616;140;57,616;140;2022-01-06 13:01
2022-01-14 07:00;;57,616;140;57,616;140;2022-01-06 13:01
2022-01-14 08:00;;57,616;140;57,616;140;2022-01-06 13:01
2022-01-14 09:00;;52,941;105;52,941;105;2022-01-06 13:01
2022-01-14 10:00;;52,941;105;52,941;105;2022-01-06 13:01
2022-01-14 11:00;;52,941;105;52,941;105;2022-01-06 13:01
2022-01-14 12:00;;52,941;105;52,941;105;2022-01-06 13:01
2022-01-14 13:00;;52,941;105;52,941;105;2022-01-06 13:01
2022-01-14 14:00;;52,941;105;52,941;105;2022-01-06 13:01
2022-01-14 15:00;;52,941;105;52,941;105;2022-01-06 13:01
2022-01-14 16:00;;52,941;105;52,941;105;2022-01-06 13:01
2022-01-14 17:00;;52,941;105;52,941;105;2022-01-06 13:01
2022-01-14 18:00;;52,941;105;52,941;105;2022-01-06 13:01
2022-01-14 19:00;;52,941;105;52,941;105;2022-01-06 13:01
2022-01-14 20:00;;52,941;105;52,941;105;2022-01-06 13:01
2022-01-14 21:00;;52,941;105;57,616;140;2022-01-06 13:01
2022-01-14 22:00;;52,941;105;57,616;140;2022-01-06 13:01
2022-01-14 23:00;;52,941;105;57,616;140;2022-01-06 13:01
2022-01-15 00:00;;53,635;105;58,211;105;2022-01-13 13:00
2022-01-15 01:00;;0;0;0;0;2022-01-13 13:00
2022-01-15 02:00;;0;0;0;0;2022-01-13 13:00
2022-01-15 03:00;;0;0;0;0;2022-01-13 13:00
2022-01-15 04:00;;0;0;0;0;2022-01-13 13:00
2022-01-15 05:00;;53,118;105;50,714;105;2022-01-13 13:00
2022-01-15 06:00;;53,118;105;50,714;105;2022-01-13 13:00
2022-01-15 07:00;;53,118;105;50,714;105;2022-01-13 13:00
2022-01-15 08:00;;52,880;105;50,476;105;2022-01-13 13:00
2022-01-15 09:00;;52,880;105;50,476;105;2022-01-13 13:00
2022-01-15 10:00;;52,880;105;50,476;105;2022-01-13 13:00
2022-01-15 11:00;;53,118;105;50,476;105;2022-01-13 13:00
2022-01-15 12:00;;53,118;105;50,476;105;2022-01-13 13:00
2022-01-15 13:00;;53,118;105;50,476;105;2022-01-13 13:00
2022-01-15 14:00;;52,642;105;50,476;105;2022-01-13 13:00
2022-01-15 15:00;;52,642;105;50,476;105;2022-01-13 13:00
2022-01-15 16:00;;52,642;105;50,476;105;2022-01-13 13:00
2022-01-15 17:00;;52,642;105;50,238;105;2022-01-13 13:00
2022-01-15 18:00;;52,642;105;50,238;105;2022-01-13 13:00
2022-01-15 19:00;;52,642;105;50,238;105;2022-01-13 13:00
2022-01-15 20:00;;53,118;105;50,952;105;2022-01-13 13:00
2022-01-15 21:00;;53,118;105;50,952;105;2022-01-13 13:00
2022-01-15 22:00;;53,357;105;51,905;105;2022-01-13 13:00
2022-01-15 23:00;;53,357;105;51,905;105;2022-01-13 13:00
2022-01-16 00:00;;53,635;105;58,211;105;2022-01-13 13:00
2022-01-16 01:00;;0;0;0;0;2022-01-13 13:00
2022-01-16 02:00;;0;0;0;0;2022-01-13 13:00
2022-01-16 03:00;;0;0;0;0;2022-01-13 13:00
2022-01-16 04:00;;0;0;0;0;2022-01-13 13:00
2022-01-16 05:00;;53,118;105;50,714;105;2022-01-13 13:00
2022-01-16 06:00;;53,118;105;50,714;105;2022-01-13 13:00
2022-01-16 07:00;;53,118;105;50,714;105;2022-01-13 13:00
2022-01-16 08:00;;52,880;105;50,476;105;2022-01-13 13:00
2022-01-16 09:00;;52,880;105;50,476;105;2022-01-13 13:00
2022-01-16 10:00;;52,880;105;50,476;105;2022-01-13 13:00
2022-01-16 11:00;;53,118;105;50,476;105;2022-01-13 13:00
2022-01-16 12:00;;53,118;105;50,476;105;2022-01-13 13:00
2022-01-16 13:00;;53,118;105;50,476;105;2022-01-13 13:00
2022-01-16 14:00;;52,642;105;50,476;105;2022-01-13 13:00
2022-01-16 15:00;;52,642;105;50,476;105;2022-01-13 13:00
2022-01-16 16:00;;52,642;105;50,476;105;2022-01-13 13:00
2022-01-16 17:00;;52,642;105;50,238;105;2022-01-13 13:00
2022-01-16 18:00;;52,642;105;50,238;105;2022-01-13 13:00
2022-01-16 19:00;;52,642;105;50,238;105;2022-01-13 13:00
2022-01-16 20:00;;53,118;105;50,952;105;2022-01-13 13:00
2022-01-16 21:00;;53,118;105;50,952;105;2022-01-13 13:00
2022-01-16 22:00;;53,357;105;51,905;105;2022-01-13 13:00
2022-01-16 23:00;;53,357;105;51,905;105;2022-01-13 13:00
2022-01-17 00:00;;53,735;105;58,385;105;2022-01-13 13:00
2022-01-17 01:00;;0;0;0;0;2022-01-13 13:00
2022-01-17 02:00;;0;0;0;0;2022-01-13 13:00
2022-01-17 03:00;;0;0;0;0;2022-01-13 13:00
2022-01-17 04:00;;0;0;0;0;2022-01-13 13:00
2022-01-17 05:00;;51,618;140;56,181;140;2022-01-13 13:00
2022-01-17 06:00;;49,530;140;54,093;140;2022-01-13 13:00
2022-01-17 07:00;;49,530;140;54,093;140;2022-01-13 13:00
2022-01-17 08:00;;49,351;140;51,224;140;2022-01-13 13:00
2022-01-17 09:00;;49,584;105;50,690;105;2022-01-13 13:00
2022-01-17 10:00;;49,584;105;50,690;105;2022-01-13 13:00
2022-01-17 11:00;;53,217;105;50,690;105;2022-01-13 13:00
2022-01-17 12:00;;53,217;105;50,690;105;2022-01-13 13:00
2022-01-17 13:00;;53,217;105;50,319;105;2022-01-13 13:00
2022-01-17 14:00;;52,739;105;50,319;105;2022-01-13 13:00
2022-01-17 15:00;;52,739;105;50,319;105;2022-01-13 13:00
2022-01-17 16:00;;52,739;105;50,319;105;2022-01-13 13:00
2022-01-17 17:00;;52,739;105;50,080;105;2022-01-13 13:00
2022-01-17 18:00;;52,739;105;50,080;105;2022-01-13 13:00
2022-01-17 19:00;;52,739;105;50,080;105;2022-01-13 13:00
2022-01-17 20:00;;53,217;105;56,536;105;2022-01-13 13:00
2022-01-17 21:00;;53,496;105;59,050;140;2022-01-13 13:00
2022-01-17 22:00;;53,735;105;59,767;140;2022-01-13 13:00
2022-01-17 23:00;;53,735;105;59,767;140;2022-01-13 13:00
2022-01-18 00:00;;53,735;105;58,385;105;2022-01-13 13:01
2022-01-18 01:00;;0;0;0;0;2022-01-13 13:01
2022-01-18 02:00;;0;0;0;0;2022-01-13 13:01
2022-01-18 03:00;;0;0;0;0;2022-01-13 13:01
2022-01-18 04:00;;0;0;0;0;2022-01-13 13:01
2022-01-18 05:00;;51,618;140;56,181;140;2022-01-13 13:01
2022-01-18 06:00;;49,530;140;54,093;140;2022-01-13 13:01
2022-01-18 07:00;;49,530;140;54,093;140;2022-01-13 13:01
2022-01-18 08:00;;47,737;140;51,224;140;2022-01-13 13:01
2022-01-18 09:00;;47,432;105;50,690;105;2022-01-13 13:01
2022-01-18 10:00;;47,432;105;50,690;105;2022-01-13 13:01
2022-01-18 11:00;;53,217;105;50,690;105;2022-01-13 13:01
2022-01-18 12:00;;53,217;105;50,690;105;2022-01-13 13:01
2022-01-18 13:00;;53,217;105;50,319;105;2022-01-13 13:01
2022-01-18 14:00;;47,718;105;50,319;105;2022-01-13 13:01
2022-01-18 15:00;;47,718;105;50,319;105;2022-01-13 13:01
2022-01-18 16:00;;47,718;105;50,319;105;2022-01-13 13:01
2022-01-18 17:00;;52,739;105;50,080;105;2022-01-13 13:01
2022-01-18 18:00;;52,739;105;50,080;105;2022-01-13 13:01
2022-01-18 19:00;;52,739;105;50,080;105;2022-01-13 13:01
2022-01-18 20:00;;53,217;105;56,536;105;2022-01-13 13:01
2022-01-18 21:00;;53,496;105;59,050;140;2022-01-13 13:01
2022-01-18 22:00;;53,735;105;59,767;140;2022-01-13 13:01
2022-01-18 23:00;;53,735;105;59,767;140;2022-01-13 13:01
2022-01-19 00:00;;53,735;105;58,385;105;2022-01-13 13:01
2022-01-19 01:00;;0;0;0;0;2022-01-13 13:01
2022-01-19 02:00;;0;0;0;0;2022-01-13 13:01
2022-01-19 03:00;;0;0;0;0;2022-01-13 13:01
2022-01-19 04:00;;0;0;0;0;2022-01-13 13:01
2022-01-19 05:00;;51,618;140;56,181;140;2022-01-13 13:01
2022-01-19 06:00;;49,530;140;54,093;140;2022-01-13 13:01
2022-01-19 07:00;;49,530;140;54,093;140;2022-01-13 13:01
2022-01-19 08:00;;47,737;140;51,224;140;2022-01-13 13:01
2022-01-19 09:00;;47,432;105;50,690;105;2022-01-13 13:01
2022-01-19 10:00;;47,432;105;50,690;105;2022-01-13 13:01
2022-01-19 11:00;;53,217;105;50,690;105;2022-01-13 13:01
2022-01-19 12:00;;53,217;105;50,690;105;2022-01-13 13:01
2022-01-19 13:00;;53,217;105;50,319;105;2022-01-13 13:01
2022-01-19 14:00;;47,718;105;50,319;105;2022-01-13 13:01
2022-01-19 15:00;;47,718;105;50,319;105;2022-01-13 13:01
2022-01-19 16:00;;47,718;105;50,319;105;2022-01-13 13:01
2022-01-19 17:00;;52,739;105;50,080;105;2022-01-13 13:01
2022-01-19 18:00;;52,739;105;50,080;105;2022-01-13 13:01
2022-01-19 19:00;;52,739;105;50,080;105;2022-01-13 13:01
2022-01-19 20:00;;53,217;105;56,536;105;2022-01-13 13:01
2022-01-19 21:00;;53,496;105;59,050;140;2022-01-13 13:01
2022-01-19 22:00;;53,735;105;59,767;140;2022-01-13 13:01
2022-01-19 23:00;;53,735;105;59,767;140;2022-01-13 13:01
2022-01-20 00:00;;53,735;105;58,385;105;2022-01-13 13:01
2022-01-20 01:00;;0;0;0;0;2022-01-13 13:01
2022-01-20 02:00;;0;0;0;0;2022-01-13 13:01
2022-01-20 03:00;;0;0;0;0;2022-01-13 13:01
2022-01-20 04:00;;0;0;0;0;2022-01-13 13:01
2022-01-20 05:00;;51,618;140;56,181;140;2022-01-13 13:01
2022-01-20 06:00;;49,530;140;54,093;140;2022-01-13 13:01
2022-01-20 07:00;;49,530;140;54,093;140;2022-01-13 13:01
2022-01-20 08:00;;47,737;140;51,224;140;2022-01-13 13:01
2022-01-20 09:00;;47,432;105;50,690;105;2022-01-13 13:01
2022-01-20 10:00;;47,432;105;50,690;105;2022-01-13 13:01
2022-01-20 11:00;;53,217;105;50,690;105;2022-01-13 13:01
2022-01-20 12:00;;53,217;105;50,690;105;2022-01-13 13:01
2022-01-20 13:00;;53,217;105;50,319;105;2022-01-13 13:01
2022-01-20 14:00;;47,718;105;50,319;105;2022-01-13 13:01
2022-01-20 15:00;;47,718;105;50,319;105;2022-01-13 13:01
2022-01-20 16:00;;47,718;105;50,319;105;2022-01-13 13:01
2022-01-20 17:00;;52,739;105;50,080;105;2022-01-13 13:01
2022-01-20 18:00;;52,739;105;50,080;105;2022-01-13 13:01
2022-01-20 19:00;;52,739;105;50,080;105;2022-01-13 13:01
2022-01-20 20:00;;53,217;105;56,536;105;2022-01-13 13:01
2022-01-20 21:00;;53,496;105;59,050;140;2022-01-13 13:01
2022-01-20 22:00;;53,735;105;59,767;140;2022-01-13 13:01
2022-01-20 23:00;;53,735;105;59,767;140;2022-01-13 13:01
2022-01-21 00:00;;53,735;105;58,385;105;2022-01-13 13:01
2022-01-21 01:00;;0;0;0;0;2022-01-13 13:01
2022-01-21 02:00;;0;0;0;0;2022-01-13 13:01
2022-01-21 03:00;;0;0;0;0;2022-01-13 13:01
2022-01-21 04:00;;0;0;0;0;2022-01-13 13:01
2022-01-21 05:00;;51,618;140;56,181;140;2022-01-13 13:01
2022-01-21 06:00;;49,530;140;54,093;140;2022-01-13 13:01
2022-01-21 07:00;;49,530;140;54,093;140;2022-01-13 13:01
2022-01-21 08:00;;47,737;140;51,224;140;2022-01-13 13:01
2022-01-21 09:00;;47,432;105;50,690;105;2022-01-13 13:01
2022-01-21 10:00;;47,432;105;50,690;105;2022-01-13 13:01
2022-01-21 11:00;;53,217;105;50,690;105;2022-01-13 13:01
2022-01-21 12:00;;53,217;105;50,690;105;2022-01-13 13:01
2022-01-21 13:00;;53,217;105;50,319;105;2022-01-13 13:01
2022-01-21 14:00;;47,718;105;50,319;105;2022-01-13 13:01
2022-01-21 15:00;;47,718;105;50,319;105;2022-01-13 13:01
2022-01-21 16:00;;47,718;105;50,319;105;2022-01-13 13:01
2022-01-21 17:00;;52,739;105;50,080;105;2022-01-13 13:01
2022-01-21 18:00;;52,739;105;50,080;105;2022-01-13 13:01
2022-01-21 19:00;;52,739;105;50,080;105;2022-01-13 13:01
2022-01-21 20:00;;53,217;105;56,536;105;2022-01-13 13:01
2022-01-21 21:00;;53,496;105;59,050;140;2022-01-13 13:01
2022-01-21 22:00;;53,735;105;59,767;140;2022-01-13 13:01
2022-01-21 23:00;;53,735;105;59,767;140;2022-01-13 13:01
2022-01-22 00:00;;44,662;105;41,237;110;2022-01-20 13:00
2022-01-22 01:00;;0;0;0;0;2022-01-20 13:00
2022-01-22 02:00;;0;0;0;0;2022-01-20 13:00
2022-01-22 03:00;;0;0;0;0;2022-01-20 13:00
2022-01-22 04:00;;0;0;0;0;2022-01-20 13:00
2022-01-22 05:00;;43,098;105;40,820;105;2022-01-20 13:00
2022-01-22 06:00;;43,098;105;40,820;105;2022-01-20 13:00
2022-01-22 07:00;;43,098;105;40,820;105;2022-01-20 13:00
2022-01-22 08:00;;42,908;105;40,582;105;2022-01-20 13:00
2022-01-22 09:00;;42,908;105;40,582;105;2022-01-20 13:00
2022-01-22 10:00;;42,908;105;40,582;105;2022-01-20 13:00
2022-01-22 11:00;;43,098;105;40,820;105;2022-01-20 13:00
2022-01-22 12:00;;43,098;105;40,820;105;2022-01-20 13:00
2022-01-22 13:00;;43,098;105;40,820;105;2022-01-20 13:00
2022-01-22 14:00;;42,718;105;40,344;105;2022-01-20 13:00
2022-01-22 15:00;;42,718;105;40,344;105;2022-01-20 13:00
2022-01-22 16:00;;42,718;105;40,344;105;2022-01-20 13:00
2022-01-22 17:00;;42,718;105;40,344;105;2022-01-20 13:00
2022-01-22 18:00;;42,718;105;40,344;105;2022-01-20 13:00
2022-01-22 19:00;;42,718;105;40,344;105;2022-01-20 13:00
2022-01-22 20:00;;43,098;105;40,820;105;2022-01-20 13:00
2022-01-22 21:00;;43,098;105;40,820;105;2022-01-20 13:00
2022-01-22 22:00;;43,289;105;41,058;105;2022-01-20 13:00
2022-01-22 23:00;;43,289;105;41,058;105;2022-01-20 13:00
Summa;9190,362;19740;9264,398;20375;
